Home > Weather > Corvallis > Past weeks

Flag for USA Weather for the Past 2 Weeks in Corvallis, Oregon, USA

Now
52 °F

Cool.


Feels Like: 49 °F
Forecast: 51 / 68 °F
Wind: 9 mph from Northwest

Location: Corvallis Municipal

Current Time: May 5, 2016 at 7:18:01 AM

Latest Report: May 5, 2016 at 6:55 AM


Visibility: 10 mi

Pressure: 30.01 "Hg

Humidity: 77%

Dew Point: 45 °F

Location of CorvallisLocation

Historic Weather in Corvallis — Graph

°F

Corvallis Temperature Yesterday

Maximum temperature yesterday: 64 °F (at 3:55 PM)
Minimum temperature yesterday: 54 °F (at 3:15 AM)
Average temperature yesterday: 56 °F

High & Low Weather Summary for the Past Weeks

 TemperatureHumidityPressure
High86 °F (May 2, 2:55 PM)100% (Apr 30, 7:35 AM)30.38 "Hg (Apr 30, 7:35 AM)
Low36 °F (Apr 26, 4:35 AM)30% (May 1, 6:55 PM)29.60 "Hg (Apr 22, 3:15 AM)
Average55 °F73%30.04 "Hg
* Reported Apr 20 6:15 AM — May 5 6:15 AM, Corvallis, Weather by CustomWeather, © 2016

Note: Actual official high and low records may vary slightly from our data, if they occured in-between our weather recording intervals... More about our weather records

Advertising

Corvallis Weather History for the Previous 24 Hours

Scroll right to see more
 ConditionsComfort  
Time TempWeatherWind HumidityBarometerVisibility
6:15 AM
Thu, May 5
52 °FCool.9 mph77%30.01 "Hg10 mi
5:55 AM52 °FCool.8 mph77%30.01 "Hg10 mi
5:35 AM50 °FCool.9 mph82%30.00 "Hg10 mi
5:15 AM52 °FCool.10 mph77%29.99 "Hg10 mi
4:55 AM52 °FCool.10 mph82%29.99 "Hg10 mi
4:35 AM52 °FCool.9 mph82%29.99 "Hg10 mi
4:15 AM52 °FCool.10 mph82%29.99 "Hg10 mi
3:55 AM52 °FCool.10 mph82%30.00 "Hg10 mi
3:35 AM52 °FCool.12 mph82%30.00 "Hg10 mi
3:15 AM52 °FCool.13 mph82%29.99 "Hg10 mi
2:55 AM52 °FCool.12 mph82%29.99 "Hg10 mi
2:35 AM52 °FCool.10 mph82%29.99 "Hg10 mi
2:15 AM52 °FCool.12 mph82%30.00 "Hg10 mi
1:55 AM52 °FCool.9 mph82%30.00 "Hg10 mi
1:35 AM52 °FCool.10 mph82%30.01 "Hg10 mi
1:15 AM52 °FCool.10 mph82%30.01 "Hg10 mi
12:55 AM54 °FCool.9 mph82%30.00 "Hg10 mi
12:35 AM54 °FCool.10 mph77%30.00 "Hg10 mi
12:15 AM54 °FCool.9 mph82%30.00 "Hg10 mi
11:55 PM
Wed, May 4
54 °FCool.10 mph82%30.00 "Hg10 mi
11:35 PM54 °FCool.13 mph82%30.00 "Hg10 mi
11:15 PM54 °FCool.12 mph82%30.00 "Hg10 mi
10:55 PM54 °FCool.12 mph82%30.00 "Hg10 mi
10:35 PM54 °FCool.9 mph82%30.00 "Hg10 mi
10:15 PM54 °FCool.10 mph82%30.00 "Hg10 mi
9:55 PM54 °FCool.9 mph82%29.99 "Hg10 mi
9:35 PM54 °FCool.9 mph82%29.98 "Hg10 mi
9:15 PM54 °FCool.12 mph82%29.98 "Hg10 mi
8:55 PM55 °FCool.10 mph77%29.99 "Hg10 mi
8:35 PM55 °FCool.10 mph77%29.98 "Hg10 mi
8:15 PM55 °FCool.9 mph82%29.97 "Hg10 mi
7:55 PM55 °FCool.10 mph82%29.98 "Hg10 mi
7:35 PM57 °FCool.9 mph77%29.97 "Hg10 mi
7:15 PM57 °FCool.9 mph82%29.97 "Hg10 mi
6:55 PM57 °FCool.13 mph82%29.96 "Hg10 mi
6:35 PM59 °FCool.10 mph82%29.96 "Hg10 mi
6:15 PM61 °FCool.8 mph72%29.97 "Hg10 mi
5:55 PM61 °FCool.10 mph72%29.97 "Hg10 mi
5:35 PM61 °FCool.7 mph72%29.96 "Hg10 mi
5:15 PM61 °FCool.7 mph72%29.96 "Hg10 mi
4:55 PM61 °FCool.7 mph72%29.97 "Hg10 mi
4:35 PM63 °FMild.8 mph68%29.97 "Hg10 mi
4:15 PM64 °FMild.6 mph64%29.97 "Hg10 mi
3:55 PM64 °FMild.3 mph64%29.97 "Hg10 mi
3:35 PM63 °FMild.No wind68%29.98 "Hg10 mi
3:15 PM63 °FMild.5 mph68%29.99 "Hg10 mi
2:55 PM61 °FCool.3 mph72%29.99 "Hg10 mi
2:35 PM57 °FCool.5 mph82%30.00 "Hg10 mi
2:15 PM57 °FCool.No wind77%30.01 "Hg10 mi
1:55 PM57 °FCool.5 mph72%30.01 "Hg10 mi
1:35 PM55 °FCool.6 mph77%30.01 "Hg10 mi
1:15 PM55 °FCool.6 mph82%30.01 "Hg10 mi
12:55 PM55 °FCool.6 mph82%30.02 "Hg10 mi
12:35 PM57 °FCool.8 mph77%30.03 "Hg10 mi
12:15 PM57 °FCool.5 mph72%30.04 "Hg10 mi
11:55 AM57 °FCool.6 mph72%30.04 "Hg10 mi
11:35 AM57 °FCool.3 mph72%30.04 "Hg10 mi
11:15 AM55 °FCool.3 mph77%30.04 "Hg10 mi
10:55 AM55 °FCool.6 mph82%30.02 "Hg10 mi
10:35 AM55 °FCool.6 mph77%30.02 "Hg10 mi
10:15 AM55 °FCool.9 mph82%30.00 "Hg10 mi
9:55 AM55 °FCool.7 mph77%30.01 "Hg10 mi
9:35 AM54 °FCool.9 mph82%29.99 "Hg10 mi
9:15 AM55 °FCool.14 mph77%30.01 "Hg10 mi
8:55 AM55 °FCool.15 mph77%29.99 "Hg10 mi
8:35 AM55 °FCool.10 mph82%30.00 "Hg10 mi
8:15 AM55 °FCool.7 mph88%30.01 "Hg10 mi
7:55 AM55 °FCool.5 mph88%30.03 "Hg9 mi
7:35 AM55 °FCool.9 mph82%30.03 "Hg10 mi
7:15 AM55 °FCool.No wind77%30.05 "Hg10 mi
Weather by CustomWeather, © 2016

See weather overviewHow to use our weather pages